Weather History for KALN - December, 2013

Change the Weather History Date:

Wednesday, December 4, 2013

  Actual Average Record
Temperature  
Mean Temperature 52 °F -  
Max Temperature 64 °F 45 °F 68 °F (1999)
Min Temperature 40 °F 31 °F 15 °F (2006)
Degree Days  
Heating Degree Days 12    
Growing Degree Days 2 (Base 50)    
Moisture  
Dew Point 47 °F    
Average Humidity 90    
Maximum Humidity 100    
Minimum Humidity 68    
Precipitation  
Precipitation 0.00 in - - ()
Sea Level Pressure  
Sea Level Pressure 29.70 in    
Wind  
Wind Speed 9 mph (SSE)    
Max Wind Speed 23 mph    
Max Gust Speed 29 mph    
Visibility 5 miles    
Events Fog    
Averages and records for this station are not official NWS values.
T = Trace of Precipitation, MM = Missing Value Source: NWS Daily Summary

Daily Weather History Graph

Daily Weather History Graph

Search for Another Location

Airport or City:

Trip Planner

Search our weather history database for the weather conditions in past years. The results will help you decide how hot, cold, wet, or windy it might be!

Date:

Astronomy

Dec. 04, 2013 Rise Set
Actual Time 7:02 AM CST 4:38 PM CST
Civil Twilight 6:33 AM CST 5:07 PM CST
Nautical Twilight 6:00 AM CST 5:40 PM CST
Astronomical Twilight 5:27 AM CST 6:13 PM CST
Moon 8:31 AM CST (12/4) 6:48 PM CST (12/4)
Length of Visible Light 10h 34m
Length of Day
9h 35m
Waxing Crescent, 4% of the Moon is Illuminated
Dec 4
Waxing Crescent
Dec 9
First Quarter
Dec 17
Full
Dec 25
Last Quarter
Jan 1
New

Hourly Weather History & Observations

Time (CST) Temp. Windchill Dew Point Humidity Pressure Visibility Wind Dir Wind Speed Gust Speed Precip Events Conditions
12:15 AM 41.9 °F 38.2 °F 41.7 °F 99% 29.70 in 0.2 mi ESE 5.8 mph - N/A Fog Fog
12:35 AM 45.3 °F 42.3 °F 45.1 °F 99% 29.69 in 1.2 mi ESE 5.8 mph - N/A   Overcast
12:55 AM 46.8 °F - 46.6 °F 99% 29.69 in 2.5 mi Calm Calm - N/A   Overcast
1:15 AM 46.4 °F - 46.0 °F 99% 29.69 in 2.0 mi Calm Calm - N/A   Overcast
1:35 AM 46.0 °F 44.8 °F 45.9 °F 99% 29.68 in 1.5 mi East 3.5 mph - N/A   Overcast
1:55 AM 48.4 °F - 48.0 °F 99% 29.68 in 3.0 mi ESE 6.9 mph - N/A   Overcast
2:15 AM 49.3 °F - 49.1 °F 99% 29.68 in 2.0 mi SE 8.1 mph - N/A   Overcast
2:35 AM 49.1 °F - 49.1 °F 100% 29.68 in 2.0 mi ESE 8.1 mph - N/A   Overcast
2:55 AM 49.1 °F - 48.7 °F 99% 29.67 in 3.0 mi East 5.8 mph - N/A   Overcast
3:15 AM 49.1 °F - 48.7 °F 99% 29.68 in 3.0 mi ESE 5.8 mph - N/A   Overcast
3:35 AM 49.1 °F - 48.9 °F 99% 29.67 in 3.0 mi ESE 5.8 mph - N/A   Overcast
3:55 AM 49.3 °F - 49.1 °F 99% 29.67 in 4.0 mi East 4.6 mph - N/A   Overcast
4:15 AM 49.5 °F - 49.1 °F 99% 29.67 in 4.0 mi ENE 3.5 mph - N/A   Overcast
4:35 AM 49.5 °F - 49.1 °F 99% 29.67 in 3.0 mi ESE 6.9 mph - N/A   Overcast
4:55 AM 49.6 °F - 49.3 °F 99% 29.67 in 4.0 mi East 8.1 mph - N/A   Overcast
5:15 AM 50.0 °F - 49.5 °F 98% 29.66 in 3.0 mi East 6.9 mph - N/A   Overcast
5:35 AM 50.0 °F - 49.6 °F 99% 29.66 in 3.0 mi East 6.9 mph - N/A   Overcast
5:55 AM 50.2 °F - 50.0 °F 99% 29.66 in 1.8 mi ESE 6.9 mph - N/A   Overcast
6:50 AM 50.0 °F - 50.0 °F 100% 29.66 in 0.5 mi SE 8.1 mph - N/A Fog Fog
7:55 AM 51.8 °F - 51.8 °F 100% 29.65 in 0.5 mi ESE 6.9 mph - N/A Fog Fog
8:50 AM 51.8 °F - 51.8 °F 100% 29.64 in 1.5 mi SE 8.1 mph - N/A   Overcast
9:50 AM 53.6 °F - 53.6 °F 100% 29.64 in 0.2 mi SSE 9.2 mph - N/A Fog Fog
10:27 AM 53.6 °F - 53.6 °F 100% 29.61 in 0.8 mi SSE 11.5 mph - N/A   Overcast
10:50 AM 55.4 °F - 55.4 °F 100% 29.60 in 3.0 mi South 16.1 mph - N/A   Overcast
11:20 AM 57.2 °F - 55.4 °F 94% 29.60 in 5.0 mi South 16.1 mph 25.3 mph N/A   Overcast
11:47 AM 57.2 °F - 55.4 °F 94% 29.57 in 6.0 mi South 16.1 mph 25.3 mph N/A   Overcast
12:50 PM 62.6 °F - 55.4 °F 77% 29.54 in 10.0 mi SSE 18.4 mph 21.9 mph N/A   Scattered Clouds
1:50 PM 64.4 °F - 53.6 °F 68% 29.53 in 10.0 mi South 19.6 mph 25.3 mph N/A   Clear
2:50 PM 64.4 °F - 53.6 °F 68% 29.54 in 10.0 mi South 23.0 mph 26.5 mph N/A   Clear
5:50 PM 59.0 °F - 51.8 °F 77% 29.63 in 10.0 mi SSW 6.9 mph - N/A   Clear
7:50 PM 51.8 °F - 44.6 °F 76% 29.73 in 10.0 mi West 23.0 mph 28.8 mph N/A   Clear
8:45 PM 48.2 °F - 42.8 °F 82% 29.77 in 10.0 mi West 17.3 mph 28.8 mph N/A   Scattered Clouds
9:15 PM 47.3 °F - 41.0 °F 79% 29.80 in 10.0 mi West 17.3 mph 25.3 mph N/A   Overcast
9:35 PM 46.2 °F 39.8 °F 39.6 °F 78% 29.83 in 10.0 mi West 15.0 mph 26.5 mph N/A   Overcast
9:45 PM 46.4 °F 38.3 °F 37.4 °F 71% 29.82 in 10.0 mi West 23.0 mph - N/A   Overcast
9:55 PM 45.5 °F 38.3 °F 37.8 °F 74% 29.83 in 10.0 mi West 17.3 mph 25.3 mph N/A   Overcast
10:15 PM 44.8 °F 37.1 °F 37.4 °F 75% 29.83 in 10.0 mi West 18.4 mph - N/A   Overcast
10:35 PM 44.2 °F 36.4 °F 37.0 °F 76% 29.84 in 10.0 mi West 18.4 mph - N/A   Overcast
10:55 PM 43.7 °F 35.7 °F 36.1 °F 75% 29.85 in 10.0 mi West 18.4 mph 28.8 mph N/A   Overcast
11:15 PM 42.8 °F 34.8 °F 35.8 °F 76% 29.85 in 10.0 mi West 17.3 mph 20.7 mph N/A   Overcast
11:35 PM 41.4 °F 33.0 °F 34.5 °F 77% 29.86 in 10.0 mi West 17.3 mph 21.9 mph N/A   Overcast
11:55 PM 40.5 °F 31.2 °F 34.2 °F 78% 29.86 in 10.0 mi West 19.6 mph - N/A   Overcast